Wind_Speed
4 3 3 2 1 2 2 2 1 1 2 1 1 1 0 0 1 1 1 1 1 2 2 3 2 1 2 3 4 4 3 2 4 5 4 2 3 4 5 5 4 4 3 2 2 1 1 2 1 1 1 1 2 3 2 1 1 3 4 4 4 4 4 5 5 5 6 6 7 8 9 9 8 8 9 9 9 9 10 10 10 10 11 11 11
3 3 3 3 2 2 1 1 2 2 1 2 2 0 1 1 1 1 1 0 1 1 1 2 2 2 2 3 3 3 3 3 3 4 5 4 3 4 4 5 5 4 4 3 2 2 2 3 3 2 2 2 3 4 4 4 5 6 7 8 8 8 7 7 7 7 7 8 8 9 9 10 10 10 11 11 11 11 11 11 11 12 13 13 14
2 2 2 3 3 3 3 3 3 3 3 3 3 2 2 1 2 2 2 1 1 2 1 1 1 1 2 2 2 2 3 3 3 3 4 4 4 4 4 4 4 3 3 2 1 2 3 3 3 3 4 4 5 6 6 7 8 10 11 12 12 11 11 10 10 10 10 10 10 11 11 11 11 12 13 13 13 12 12 13 13 14 15 16 17
4 3 2 2 3 4 4 5 5 5 5 4 4 4 3 3 3 3 2 2 2 2 2 2 2 2 2 1 2 1 2 2 2 3 4 4 4 4 4 4 4 4 3 2 3 3 3 4 5 5 5 6 7 8 9 10 11 13 14 14 14 13 13 13 13 13 13 12 13 13 14 13 13 13 14 14 14 14 14 15 16 16 17 17 18
7 7 6 4 2 1 2 3 5 6 5 4 4 4 4 4 4 3 3 2 2 3 3 2 2 2 2 2 2 2 2 2 2 3 3 4 5 4 4 4 5 5 4 4 4 4 5 6 7 7 7 7 8 9 10 12 13 15 15 15 15 15 15 15 16 16 15 15 15 16 16 16 16 15 15 15 15 15 16 17 17 18 18 18 19
9 10 9 7 6 3 2 2 3 4 3 4 3 3 3 4 4 4 3 3 3 4 3 3 3 2 3 3 3 3 3 3 3 3 3 4 6 4 4 4 4 5 4 2 2 5 6 7 8 8 8 8 9 10 10 12 13 14 15 15 15 15 16 16 17 17 17 16 17 17 17 18 18 17 17 17 17 17 18 18 19 18 18 19 19
9 10 9 8 7 6 5 3 1 1 1 3 3 2 3 3 3 3 3 3 3 4 3 3 3 2 2 3 3 3 3 3 2 2 3 4 5 4 5 4 4 5 4 1 2 6 7 7 7 7 8 8 9 10 11 12 12 13 15 15 15 15 16 16 16 17 16 16 17 17 16 17 17 17 17 18 18 18 19 19 19 18 18 19 19
9 9 9 8 7 7 7 5 4 2 1 2 1 1 2 3 3 3 3 3 4 4 4 3 3 3 2 3 3 3 2 2 2 1 2 3 3 4 6 5 5 6 4 2 5 7 7 9 9 8 9 9 10 10 10 11 11 11 12 13 13 13 14 15 15 15 15 15 15 15 15 15 16 16 16 17 18 18 18 18 18 18 18 18 18
8 8 8 8 7 7 7 7 7 5 2 1 1 2 3 4 4 4 3 3 5 5 4 4 3 3 2 2 3 3 2 2 3 1 1 2 3 4 6 6 6 5 3 3 6 7 7 8 9 10 10 10 10 10 9 9 9 9 10 10 10 10 11 12 13 14 15 14 13 13 14 14 14 14 14 15 16 16 16 17 17 18 17 16 17
8 8 8 8 8 7 7 7 7 6 5 3 2 2 2 3 3 5 4 3 5 5 4 4 3 3 3 3 2 2 3 4 4 4 3 3 4 6 7 7 8 7 5 4 4 5 4 4 5 7 9 8 8 8 8 8 8 8 8 9 9 9 10 11 11 12 12 10 10 10 11 12 12 12 12 13 14 14 14 15 15 14 14 16 17
8 8 8 8 8 7 7 7 6 6 5 4 4 3 2 1 1 3 3 3 3 4 4 4 3 3 3 3 2 3 4 4 4 5 4 4 4 6 6 6 6 6 4 3 2 2 3 3 3 5 7 8 8 8 8 8 9 8 8 8 8 8 9 10 9 9 8 6 7 7 8 11 12 11 11 12 12 11 11 12 11 11 14 17 19
7 8 8 7 8 7 7 6 6 6 5 5 4 3 3 2 1 1 2 1 2 3 3 2 3 3 3 3 3 3 4 3 3 2 1 1 2 3 4 5 5 4 3 2 1 2 3 3 3 3 4 6 8 9 9 10 9 8 8 8 8 8 8 9 8 7 5 5 6 6 7 9 9 9 8 8 9 8 9 12 13 14 16 17 17
7 7 7 7 7 7 7 6 6 6 5 5 5 4 3 3 2 2 2 2 2 3 2 1 3 4 3 2 2 2 2 1 1 1 1 2 3 4 6 5 3 2 2 2 2 2 3 3 3 4 4 5 7 8 8 9 9 8 8 8 8 8 8 8 7 7 5 4 4 5 5 5 5 5 4 5 7 9 12 14 15 15 15 15 15
5 6 6 6 6 6 6 6 6 5 6 6 6 5 4 4 3 3 3 3 3 4 2 1 4 5 4 3 2 1 1 1 0 1 2 3 3 3 3 2 1 2 3 4 5 5 5 5 5 7 7 6 7 6 7 8 8 8 7 7 8 9 9 10 9 8 7 5 4 3 2 2 2 2 4 7 10 12 14 15 15 16 16 17 17
5 5 5 5 6 6 6 5 5 5 5 6 6 5 5 4 4 3 2 2 3 3 3 3 4 4 5 6 5 4 2 2 1 2 2 2 2 1 1 2 2 2 4 5 5 5 6 6 7 8 7 7 7 6 7 9 9 8 7 6 7 7 9 10 10 8 7 5 3 2 1 2 1 5 9 12 13 14 15 15 16 17 18 18 18
6 6 5 4 4 4 5 5 5 5 5 5 5 5 5 5 5 4 3 3 2 3 3 3 4 4 4 6 7 7 4 5 5 5 5 4 4 4 5 5 5 5 5 5 5 5 6 5 6 7 8 8 7 6 6 8 9 8 7 6 6 6 7 7 7 7 6 5 3 4 4 3 6 13 15 14 14 14 14 15 15 16 17 18 18
7 6 5 3 3 3 3 4 4 4 4 5 5 5 5 5 4 4 3 3 3 3 3 2 3 4 4 5 5 6 4 4 6 4 5 4 4 5 6 7 6 6 6 6 6 6 7 7 8 8 7 8 7 6 6 6 7 7 7 6 5 6 6 4 4 6 8 10 9 9 10 10 14 18 17 13 12 12 13 14 14 15 16 17 17
8 7 6 4 2 2 2 3 4 4 4 4 4 5 5 4 4 4 4 3 3 3 3 3 2 3 4 4 3 4 4 1 3 4 6 5 4 6 6 6 6 6 7 7 6 6 7 8 9 7 7 8 8 6 5 5 5 5 6 6 5 6 7 7 6 7 10 14 15 15 15 15 16 17 14 12 12 12 13 14 14 15 15 16 17
9 8 7 5 3 3 3 3 5 4 4 4 4 5 5 5 4 4 4 4 3 3 3 3 2 2 2 3 3 3 4 3 3 3 7 7 6 6 5 5 5 6 8 7 7 6 6 7 8 6 6 9 9 6 4 4 5 5 5 6 6 7 8 8 9 10 13 15 14 14 14 14 14 14 14 13 13 13 13 13 14 14 15 15 16
8 8 7 6 4 3 3 3 4 4 5 4 4 5 5 5 5 4 4 4 4 3 3 3 2 2 2 2 3 3 4 3 4 3 5 9 8 6 5 4 3 5 8 8 7 6 6 7 7 7 8 8 7 4 3 3 5 5 6 7 8 8 8 8 9 11 13 12 11 11 12 12 13 13 14 14 14 13 13 14 14 14 15 15 15
7 7 7 7 5 4 3 3 3 4 4 4 4 5 5 6 6 5 5 4 3 3 3 3 3 3 2 3 3 2 3 3 2 3 4 8 8 6 6 5 4 6 7 8 9 8 8 7 6 7 7 6 5 4 4 4 6 7 9 10 10 8 8 8 9 10 10 10 10 11 12 13 14 14 14 14 15 15 14 15 15 15 15 14 14
6 6 7 6 4 3 3 2 3 3 4 4 4 5 5 5 6 6 6 4 3 3 3 3 3 3 4 3 3 3 3 3 2 3 4 6 8 7 6 6 6 8 9 11 11 10 9 7 6 6 7 7 7 7 7 7 9 10 11 11 10 10 9 10 10 11 11 12 12 13 13 14 14 14 14 15 15 15 14 15 15 15 15 14 14
5 5 6 4 2 2 1 1 2 2 3 3 3 4 4 4 5 5 5 5 4 3 3 3 3 4 4 4 3 3 2 3 3 3 3 3 8 10 9 7 7 9 11 12 10 10 9 7 7 8 8 8 8 8 9 10 11 12 11 11 11 11 11 12 12 13 13 13 14 14 14 14 14 14 14 14 15 14 14 14 14 15 15 14 14
4 4 5 4 2 1 1 1 1 2 2 2 2 2 2 3 5 5 4 4 3 2 2 2 2 3 3 3 3 3 2 3 3 3 3 3 7 11 11 9 9 10 11 11 10 11 10 9 10 10 10 10 9 9 10 11 11 12 12 12 12 12 12 13 13 13 13 13 13 13 13 13 14 14 14 14 15 15 15 14 15 15 15 15 15
3 3 4 4 2 2 1 0 1 2 2 1 1 2 2 2 4 5 4 4 2 3 3 2 2 2 2 2 2 3 3 3 3 2 1 3 8 11 11 8 10 11 10 10 11 11 11 10 11 11 11 11 10 10 10 11 12 12 12 12 12 12 12 12 12 12 13 13 12 12 12 13 14 14 14 15 15 16 16 15 15 15 15 15 15
3 4 4 3 2 2 1 1 1 1 1 1 1 2 2 2 3 4 5 4 3 3 3 2 2 2 1 1 2 3 3 3 4 2 0 3 8 12 11 9 10 10 9 9 8 8 9 10 10 9 10 10 10 10 11 12 12 12 12 12 12 12 13 12 11 10 11 13 13 12 12 13 14 15 15 16 16 17 17 16 16 16 16 15 15
4 5 4 2 1 1 1 1 0 1 0 1 1 2 3 2 2 3 4 4 3 3 2 2 2 2 2 2 2 3 4 4 4 2 1 2 5 9 10 11 12 10 9 8 7 7 8 9 9 8 8 9 10 10 11 12 12 12 13 13 14 14 14 13 11 10 10 12 13 13 14 15 16 16 16 17 17 17 17 18 18 17 17 17 16
4 5 3 1 1 1 1 0 1 1 1 1 1 2 3 2 1 2 3 2 3 3 2 2 1 2 2 2 2 2 3 4 3 2 1 2 4 6 8 10 11 10 10 9 7 7 7 8 9 8 7 8 9 10 11 12 13 14 15 16 16 16 15 13 11 11 10 11 12 13 15 16 17 17 17 17 17 17 17 18 18 18 18 18 17
4 4 2 1 1 1 1 0 1 1 1 1 1 2 2 2 1 1 1 1 2 2 2 2 2 2 1 1 2 1 2 4 3 2 1 1 2 5 7 7 7 9 11 10 8 7 6 7 7 7 6 7 9 10 11 12 13 15 16 17 17 16 15 13 12 12 12 12 12 14 16 16 17 17 17 17 17 17 17 18 18 19 19 19 19
4 4 1 1 2 1 1 0 1 0 0 0 2 2 2 2 1 1 2 1 2 1 2 3 3 3 2 2 2 2 2 4 3 2 1 2 2 3 4 4 4 6 8 11 9 6 6 6 6 6 6 7 9 9 10 12 13 14 16 16 16 16 15 15 14 14 13 14 14 15 15 16 16 17 17 17 17 17 17 18 18 19 19 20 20
4 3 1 2 2 2 2 1 1 1 1 1 2 3 2 1 0 1 2 2 2 1 1 2 3 4 3 3 3 2 2 3 3 2 2 2 3 3 3 4 6 6 6 9 9 7 6 6 5 6 7 7 7 8 9 11 13 14 14 16 17 17 16 17 16 15 14 14 15 15 15 16 16 17 17 18 18 18 18 19 19 19 20 20 20
3 2 1 3 3 3 3 2 2 2 1 2 2 2 2 1 2 2 3 2 1 1 0 1 2 4 4 3 2 3 2 2 1 2 2 1 3 4 4 5 6 6 6 7 9 9 7 5 5 8 7 7 7 7 8 10 12 14 12 13 14 13 14 17 18 17 16 15 15 16 16 17 17 17 18 18 18 18 19 19 20 21 21 21 20
2 1 2 4 5 4 4 3 3 2 1 2 2 2 2 1 2 3 3 3 2 1 0 0 1 2 3 3 1 2 2 1 1 1 1 1 2 3 4 4 4 5 6 7 9 9 8 7 8 8 7 7 7 6 6 8 9 11 11 12 13 11 10 14 18 19 18 17 16 17 18 18 18 18 18 18 19 19 19 20 21 21 22 22 21
2 1 4 6 6 6 5 4 4 2 1 1 1 1 1 1 1 2 3 3 3 2 2 1 1 1 2 3 1 1 0 1 1 1 1 2 1 2 4 4 4 5 6 7 8 9 9 9 9 8 7 7 6 4 5 6 6 9 10 10 11 11 11 12 16 19 19 18 17 18 19 19 19 19 19 19 19 19 20 20 21 22 22 22 21
2 2 5 7 7 7 7 5 4 3 2 2 1 1 0 1 1 2 3 3 3 3 2 2 1 1 2 2 1 0 1 1 0 1 2 3 3 2 3 3 4 5 6 6 6 8 9 10 9 8 7 6 6 4 3 5 6 7 7 8 9 11 11 12 15 18 19 18 18 18 19 20 20 20 19 19 20 20 21 22 22 23 23 22 22
4 3 5 6 8 8 7 6 5 4 3 2 1 1 0 1 1 2 2 2 3 3 3 3 3 3 3 2 1 2 3 3 3 2 2 4 4 4 4 4 4 5 5 5 5 7 9 9 9 8 6 6 6 4 3 4 5 5 5 7 8 9 10 12 14 17 19 20 19 18 19 20 20 20 20 20 21 21 22 23 23 24 24 23 22
5 4 4 6 9 8 7 7 6 5 4 2 1 1 0 1 2 2 3 3 3 4 4 4 4 4 4 4 3 4 5 4 4 5 6 6 6 5 6 6 5 6 5 5 5 7 9 10 10 9 8 7 6 5 4 3 3 4 4 5 6 6 8 10 12 16 19 21 20 18 19 20 20 20 21 21 22 23 24 25 25 25 25 24 23
6 4 5 6 8 8 7 7 7 6 5 3 1 0 1 2 2 3 3 3 4 5 5 5 5 5 5 5 4 5 6 6 7 8 9 9 8 7 8 7 7 7 6 6 6 7 9 10 10 9 8 7 6 5 4 4 3 3 2 3 5 5 6 7 10 13 15 18 19 16 17 19 20 22 23 22 23 25 25 26 26 26 26 25 24
7 5 5 7 8 9 9 9 8 7 6 4 2 1 2 2 3 3 3 3 3 4 5 5 5 5 5 5 5 5 6 7 9 11 11 11 10 9 10 9 8 7 6 6 6 7 8 9 9 9 8 7 6 5 5 4 3 3 2 1 2 4 5 5 6 8 10 14 16 14 15 19 21 22 24 23 24 26 26 27 28 27 27 26 26
8 6 7 8 8 10 11 10 9 8 6 5 3 3 3 3 3 3 3 3 3 4 4 4 4 4 4 4 5 5 5 6 8 10 11 11 9 8 8 7 6 6 6 6 6 7 8 9 8 8 8 8 7 6 6 4 3 2 2 2 1 1 4 5 6 6 7 9 11 11 13 16 16 17 21 23 25 25 26 27 28 28 28 28 27
10 7 8 8 8 10 11 11 10 8 6 5 5 5 4 4 3 3 4 4 4 4 4 4 4 4 4 4 5 5 5 6 7 8 9 10 9 8 7 6 5 5 5 6 6 7 7 8 8 8 8 8 8 7 6 5 4 3 2 2 2 2 2 4 6 7 6 7 9 10 11 12 11 12 17 22 24 25 26 27 28 29 28 29 29
12 9 8 8 9 10 10 10 9 8 6 6 6 6 5 4 4 3 3 4 5 4 4 4 4 3 4 4 5 5 6 6 7 7 7 8 8 7 7 7 6 5 5 5 6 6 7 7 7 8 8 8 8 7 7 6 4 3 2 2 3 2 2 2 4 7 7 7 7 10 12 12 10 11 15 21 23 24 25 27 28 29 29 29 30
14 11 8 8 9 10 11 11 9 8 7 7 7 7 6 5 4 3 3 4 5 5 5 4 4 4 4 5 5 5 6 6 7 7 7 7 7 6 6 7 7 7 7 6 5 5 5 6 6 7 7 8 8 7 7 6 5 4 3 3 3 3 2 1 1 4 6 7 6 8 11 13 12 12 15 19 21 23 25 26 27 28 29 30 31
16 13 10 8 8 10 11 11 10 9 8 7 7 7 7 5 4 3 3 4 5 5 6 5 5 4 4 5 5 5 6 6 6 7 7 7 7 7 6 6 6 7 8 8 7 6 5 5 6 7 6 7 8 8 7 6 5 4 4 3 3 3 2 0 1 1 3 6 7 6 9 11 11 12 15 18 21 22 24 25 25 27 29 30 31
17 15 12 10 9 10 11 12 11 10 9 8 8 8 7 6 4 4 4 4 5 5 6 6 5 5 5 5 5 5 6 6 6 6 7 7 7 6 6 5 5 5 6 6 7 7 7 6 5 6 7 7 8 8 8 8 6 5 4 3 3 3 2 1 1 1 2 5 5 4 8 9 8 9 12 15 19 22 23 23 24 26 28 30 31
18 16 15 13 10 10 11 12 12 11 10 9 8 9 8 7 5 5 4 5 5 5 6 6 6 6 6 5 6 6 6 5 5 6 6 6 6 6 5 5 5 5 5 5 6 7 8 7 7 8 10 9 8 9 11 9 7 5 4 3 3 3 3 3 2 1 2 5 7 4 6 8 7 8 9 11 14 19 22 22 23 25 27 29 30
18 17 16 14 12 10 11 12 13 13 11 10 9 9 9 8 6 6 5 5 5 6 6 6 5 5 5 5 6 6 6 5 5 6 6 6 6 5 5 5 5 5 5 5 6 6 7 8 9 10 13 12 10 11 12 10 8 7 7 6 5 5 4 2 2 3 3 4 8 7 4 6 7 7 8 8 9 14 19 20 21 23 26 27 29
18 18 18 16 14 13 12 12 14 14 13 11 11 10 10 9 8 7 6 6 6 6 6 6 5 5 5 5 5 5 5 5 5 5 6 6 6 6 6 6 6 6 5 5 6 6 6 7 8 9 11 11 10 11 11 10 10 9 7 6 5 4 3 3 1 2 1 1 5 7 4 5 7 6 8 9 8 10 15 18 19 21 24 26 26
19 18 18 18 17 15 14 13 14 15 15 13 12 11 11 10 9 9 8 7 7 7 7 6 5 5 5 5 5 5 5 5 6 6 6 7 7 7 7 7 6 6 6 5 5 6 6 7 7 8 9 10 10 10 10 11 12 11 6 2 3 4 3 2 2 2 1 1 2 7 5 4 5 5 6 10 12 11 13 16 18 19 21 24 25
18 18 18 18 19 18 17 16 14 15 16 15 13 13 12 11 11 10 9 9 9 8 8 7 6 6 5 5 6 6 5 6 6 6 7 8 8 8 8 8 7 7 6 6 6 6 7 7 8 8 9 9 10 10 11 12 13 12 8 3 3 3 2 1 1 2 2 2 1 5 5 3 4 4 3 5 9 11 13 15 17 18 19 22 23
20 19 20 21 21 21 20 18 16 16 17 17 16 15 13 13 13 12 11 11 11 10 9 8 7 7 6 6 7 6 6 6 6 7 8 9 10 10 8 7 7 8 8 8 7 7 7 7 8 8 9 9 10 10 11 12 11 10 9 7 5 2 1 0 2 2 2 2 3 2 5 2 3 4 2 2 4 8 11 13 15 17 18 19 21
Wind_Direction
54 48 33 33 29 39 43 28 5 328 359 1 321 357 28 220 198 217 236 240 259 258 236 247 271 254 252 258 257 261 257 226 217 255 306 251 258 290 277 281 278 272 283 308 315 266 247 267 274 315 334 348 347 335 338 355 336 319 312 314 316 311 306 304 302 303 306 309 310 308 305 306 306 302 299 298 302 306 309 311 309 304 301 301 305
23 16 358 348 346 337 324 312 290 288 291 276 283 282 221 243 221 218 228 239 261 263 248 249 269 269 268 272 268 269 263 250 231 263 296 285 272 284 288 295 285 279 283 295 307 259 241 247 251 269 273 277 286 290 295 292 285 284 286 287 289 290 289 289 290 296 302 305 303 301 303 304 301 297 294 294 297 301 302 305 305 304 305 307 308
2 334 316 317 306 288 273 260 266 276 268 268 277 266 244 234 224 227 225 225 248 262 261 245 249 261 285 297 282 277 267 262 251 253 276 281 273 280 292 297 288 278 276 275 252 223 225 226 235 250 257 264 270 275 280 284 282 280 277 275 278 283 285 286 287 289 290 291 291 291 295 296 296 296 296 298 300 301 301 302 303 303 305 306 307
21 18 1 319 269 257 259 249 246 253 257 262 271 273 272 264 252 253 257 252 255 254 253 250 250 257 271 300 298 296 280 271 269 255 261 271 270 278 288 284 276 264 251 231 202 197 203 212 226 236 249 262 269 275 275 275 274 272 273 272 274 278 282 284 284 285 285 282 281 282 284 284 287 290 293 297 300 300 299 299 298 298 300 302 303
42 51 50 32 359 258 247 255 243 235 236 237 252 271 275 279 276 273 273 272 269 265 267 265 265 272 268 273 287 287 288 284 277 262 259 264 265 274 286 274 268 262 243 217 194 186 195 207 218 227 237 248 256 261 264 266 265 265 269 270 272 277 281 284 284 285 286 284 282 280 279 279 279 281 284 288 293 295 295 295 294 294 296 299 301
50 54 55 48 36 39 45 305 254 228 231 219 224 263 263 273 282 280 283 284 279 278 283 276 269 278 277 281 287 284 288 286 275 273 266 261 263 266 270 262 257 253 241 227 202 206 214 218 226 236 243 251 257 262 268 273 271 271 274 274 275 277 279 281 283 284 285 285 285 282 280 278 276 275 278 283 286 289 290 290 290 291 293 295 297
44 46 51 54 42 41 43 9 294 221 256 203 196 233 238 244 260 275 288 287 282 285 287 284 278 269 280 296 296 294 301 292 278 275 269 273 278 264 248 246 251 248 241 299 288 247 247 245 242 251 256 263 271 275 281 286 285 283 282 282 281 279 280 282 283 284 284 284 283 283 283 281 278 278 279 281 284 286 288 289 290 291 291 292 294
42 42 44 52 47 43 44 39 50 37 276 194 204 246 235 238 233 245 271 276 277 279 282 285 283 278 286 303 304 308 318 306 288 271 264 274 279 260 251 253 267 264 244 266 276 265 269 262 253 262 271 277 284 291 300 304 305 303 298 296 293 290 289 288 287 286 285 284 284 286 285 283 282 281 282 284 286 289 291 291 292 292 291 293 294
43 42 41 47 48 44 41 40 48 43 44 81 312 302 279 264 259 260 263 279 285 281 286 284 277 284 290 290 297 309 307 284 272 253 222 248 252 261 267 269 273 272 252 244 259 269 285 279 272 279 286 291 297 307 318 322 326 326 322 318 315 312 307 300 296 292 288 286 284 283 283 283 283 285 287 289 290 293 295 296 296 297 297 297 296
41 42 41 46 47 45 40 36 40 38 42 50 34 3 298 277 291 295 284 282 287 283 288 287 273 281 291 283 276 281 280 272 264 246 226 226 242 259 268 270 270 268 260 247 251 267 291 304 302 305 310 313 318 329 340 345 346 345 342 338 335 334 329 323 316 304 298 291 282 282 286 287 289 292 294 294 295 297 299 300 302 305 304 301 299
42 42 42 45 47 44 39 38 41 39 38 42 43 40 12 349 332 302 293 279 283 287 288 290 280 264 279 294 284 273 273 270 263 255 251 245 243 254 259 260 266 273 273 260 257 278 283 302 324 331 342 352 1 7 7 9 9 3 359 351 348 351 346 343 343 328 313 293 278 277 282 288 294 299 300 300 301 304 306 305 306 305 301 299 299
41 40 38 41 45 41 38 35 40 40 37 37 29 23 18 9 1 306 320 292 279 287 272 266 271 253 252 273 275 279 281 277 277 277 293 272 233 237 245 251 261 283 304 301 303 315 309 331 3 1 5 10 14 18 16 16 17 10 7 3 359 1 357 352 353 351 335 308 294 290 289 295 301 303 305 308 309 313 311 307 306 304 302 302 302
38 35 34 36 38 37 35 32 34 34 30 29 21 16 16 2 354 357 353 330 290 289 277 221 249 254 252 252 255 287 307 7 347 350 357 267 245 240 247 259 279 309 340 357 9 17 15 19 36 43 52 49 26 12 10 15 17 15 14 14 14 15 16 11 8 15 12 353 339 323 316 315 306 301 309 312 312 312 309 308 310 310 309 309 308
39 35 32 31 29 26 30 31 26 24 23 21 16 10 8 4 5 6 354 332 306 295 288 236 246 252 252 239 198 185 49 73 50 6 315 282 264 262 265 282 340 37 55 53 50 50 39 21 24 36 46 59 42 14 15 25 18 13 17 27 31 28 27 30 30 30 32 32 22 349 319 284 271 329 338 319 314 312 309 309 309 309 310 310 309
39 37 32 26 25 21 21 27 24 22 21 19 16 10 5 4 2 359 8 7 334 304 275 247 264 264 246 239 222 206 188 154 113 52 20 13 61 68 59 62 53 62 64 63 60 52 42 29 25 36 48 56 43 21 28 34 24 16 24 36 37 33 36 39 38 37 39 38 25 343 293 232 275 358 340 321 317 312 310 309 307 308 309 310 310
39 35 32 26 23 20 17 20 25 24 21 19 16 15 9 9 5 355 6 28 6 329 301 257 273 281 256 252 245 238 216 151 120 69 54 62 77 90 88 77 71 73 67 61 57 42 39 39 32 43 66 73 54 34 43 48 41 32 30 33 27 22 37 45 41 38 28 9 348 331 334 317 322 335 331 320 315 314 313 311 310 310 311 312 314
42 34 28 26 22 24 20 15 21 25 26 24 17 19 16 12 9 0 1 7 3 351 335 291 275 276 274 278 260 254 256 150 139 101 74 75 81 88 90 88 83 80 72 62 58 46 35 39 46 49 58 79 91 80 74 77 66 52 39 32 19 360 359 3 12 13 356 340 328 318 320 316 312 319 325 321 315 314 314 313 314 314 315 317 319
38 33 24 15 10 18 17 16 20 22 30 28 21 23 22 17 16 12 5 358 3 3 349 339 297 271 277 293 280 266 286 262 170 136 102 94 96 95 90 90 82 72 71 65 59 55 43 50 68 67 44 66 104 114 86 68 48 42 27 11 357 343 332 319 326 339 333 328 322 315 315 315 313 317 324 324 320 319 318 317 318 318 318 320 321
31 29 22 13 10 13 11 23 23 19 23 22 24 30 23 20 26 22 14 9 13 9 357 357 330 297 293 294 295 281 283 283 242 172 135 124 116 112 100 86 78 66 65 63 60 61 58 62 76 86 71 78 99 109 83 41 5 354 346 338 334 333 322 310 310 315 319 323 323 321 319 319 319 322 327 329 328 327 323 320 320 320 320 320 321
28 26 22 16 19 19 9 21 23 19 27 23 21 28 23 20 24 28 28 25 19 11 3 0 359 2 346 316 322 307 295 287 260 233 165 140 127 126 118 100 86 72 67 62 60 62 64 65 65 70 78 86 93 92 75 16 347 342 348 347 343 337 326 314 310 312 320 327 331 329 325 324 325 327 331 332 330 327 325 323 322 322 320 321 323
17 20 26 20 20 22 9 8 8 14 24 24 19 20 23 24 23 29 32 33 28 19 10 359 6 29 21 354 350 336 320 318 300 279 217 165 150 149 137 119 96 79 75 72 68 60 55 58 63 63 64 63 55 47 41 26 18 22 17 8 2 358 350 340 332 331 334 337 339 335 332 332 332 333 333 332 331 331 330 327 324 323 321 322 322
3 9 22 19 13 20 10 351 349 356 2 9 15 13 16 20 21 27 29 33 36 27 22 4 0 25 37 25 4 358 340 329 338 302 253 184 165 165 153 135 111 94 89 82 71 59 51 53 72 77 72 69 57 46 44 41 38 35 25 13 8 6 4 0 355 351 349 348 345 343 342 340 338 338 336 335 337 338 335 330 329 327 326 325 321
3 2 4 11 21 21 11 347 333 328 339 357 10 8 7 8 12 19 23 31 34 35 36 12 5 23 37 48 29 20 359 333 338 306 282 168 162 163 154 142 119 105 101 92 74 61 53 55 74 78 75 75 68 58 51 44 41 33 22 13 8 6 5 4 1 356 355 355 355 353 352 351 346 341 341 343 344 344 341 338 337 334 332 330 326
3 358 348 2 53 78 27 2 322 294 301 347 1 1 5 3 3 8 13 21 24 41 55 30 20 26 27 43 41 37 30 1 357 306 297 132 161 169 160 146 122 112 110 97 80 69 58 58 71 72 72 74 67 59 51 42 37 28 18 11 7 8 7 7 9 7 5 7 11 8 2 357 353 348 348 350 349 348 347 346 344 341 339 337 333
356 355 346 4 66 103 123 177 272 265 255 305 350 356 22 8 355 2 4 2 6 30 48 58 58 37 20 33 38 43 46 29 29 342 311 132 159 171 164 149 130 123 111 91 82 74 65 66 74 75 74 73 64 54 46 38 32 23 17 11 8 11 10 9 13 14 18 20 16 10 6 3 0 358 358 357 354 354 353 352 351 349 346 343 340
351 346 356 23 84 118 141 189 226 223 231 248 336 338 8 6 347 352 354 357 14 29 32 49 87 91 61 47 37 54 66 48 37 45 136 167 170 172 164 147 133 125 107 94 90 80 73 74 76 79 80 74 66 56 44 37 30 22 18 14 13 16 15 12 8 9 22 25 17 13 14 12 8 6 6 3 1 359 359 358 358 356 354 351 348
339 343 7 53 117 128 131 190 185 132 206 273 336 334 339 345 335 340 349 3 36 49 40 38 85 116 131 110 52 53 80 67 43 58 130 182 180 182 171 147 130 120 113 110 103 89 84 85 83 80 79 76 67 56 44 36 32 29 26 22 21 22 20 16 13 14 21 26 28 26 19 15 13 12 10 8 6 5 5 5 4 3 1 359 357
345 351 19 86 118 116 146 140 92 98 44 14 5 333 330 329 317 332 347 17 52 63 67 56 69 93 106 93 50 45 97 90 67 70 161 202 192 191 176 153 141 134 131 127 117 107 101 98 96 89 84 80 68 56 48 41 38 37 33 28 27 26 22 19 21 26 26 27 31 27 19 19 19 17 15 13 12 11 11 10 9 8 7 6 5
355 354 22 146 187 169 188 74 91 92 50 43 353 324 325 318 293 300 315 60 70 75 92 92 96 77 49 60 63 68 109 103 91 91 167 206 186 180 171 162 163 158 153 146 135 133 126 107 106 110 104 87 71 61 53 44 44 45 38 32 32 32 28 25 27 33 34 30 29 26 25 26 24 22 21 19 18 17 17 16 14 13 12 11 10
1 353 11 188 217 202 199 188 112 53 68 60 325 323 321 311 288 264 232 145 100 115 124 114 117 107 101 116 104 98 113 117 117 109 142 157 134 157 168 166 169 168 163 152 140 146 140 115 120 133 115 89 77 65 51 43 45 47 39 33 38 40 37 35 34 36 38 36 33 33 33 32 30 28 26 24 23 23 23 22 20 18 16 15 14
2 350 318 206 224 216 212 225 231 273 274 306 330 326 310 292 226 232 218 173 121 123 129 122 122 108 104 116 120 130 107 103 126 120 113 150 150 145 157 168 167 164 164 154 144 146 146 137 143 141 119 103 93 69 51 44 44 49 43 34 38 38 34 37 39 38 40 41 39 38 37 34 32 31 29 29 29 28 29 28 26 24 22 20 19
351 338 244 210 220 222 217 222 234 250 284 321 341 336 315 269 194 204 212 196 158 106 68 102 117 106 104 109 141 165 125 77 106 122 110 167 163 153 163 169 163 158 161 156 139 136 150 159 149 141 133 117 103 73 53 43 42 49 50 46 48 43 30 31 37 40 40 41 41 39 37 35 32 31 31 31 32 33 34 33 30 28 26 24 23
323 311 231 210 213 221 220 218 227 232 280 318 342 359 324 269 211 205 208 210 214 214 250 340 118 115 114 115 144 192 164 130 110 104 122 196 169 170 179 170 154 152 154 144 131 132 145 149 143 149 144 118 108 96 73 56 46 46 47 50 58 61 44 29 31 38 39 38 41 40 38 36 32 33 34 35 36 37 37 36 33 31 29 26 26
290 256 228 215 208 214 218 216 219 213 220 288 344 24 299 271 233 218 216 216 221 226 232 262 267 155 126 130 160 222 188 199 219 192 171 171 176 198 186 167 156 154 144 135 133 136 142 146 153 157 146 128 125 115 85 68 54 48 46 48 52 58 58 40 31 36 37 36 41 42 41 39 35 35 38 39 41 41 40 39 36 34 32 30 29
258 231 227 218 206 207 211 211 212 205 207 257 337 34 291 263 225 216 214 211 210 209 209 211 211 155 125 130 170 136 62 78 177 208 189 163 155 172 166 157 155 142 128 129 141 146 145 150 157 158 154 150 144 126 86 66 62 61 53 49 49 51 54 46 34 35 36 36 40 43 42 39 37 38 40 41 43 43 43 41 39 37 35 34 33
242 231 229 215 205 203 203 205 210 206 208 258 334 12 228 178 176 183 181 181 178 172 175 177 167 149 139 135 133 102 91 88 92 102 139 139 131 140 141 144 150 139 128 133 148 155 155 155 159 163 165 159 152 145 114 79 71 72 57 50 53 49 48 46 38 35 36 37 38 42 45 42 39 40 42 44 45 45 45 43 40 40 39 38 38
237 230 229 212 202 202 200 198 204 205 206 238 322 354 160 151 153 156 148 146 149 149 151 151 146 142 137 135 133 118 108 103 107 120 130 122 114 127 135 139 150 149 142 143 152 160 159 157 158 162 164 163 165 159 137 117 92 78 65 61 61 49 42 39 34 33 35 35 32 35 43 42 41 42 42 44 47 46 45 44 41 42 42 41 41
235 228 231 216 200 198 200 196 198 204 205 216 260 293 143 151 158 154 147 146 151 151 148 144 141 140 137 133 130 128 127 127 132 141 142 131 124 130 136 142 151 151 147 147 151 156 158 159 160 160 164 169 171 166 158 151 132 115 89 67 58 50 45 34 26 25 27 30 27 28 39 38 34 39 41 43 48 47 45 44 42 43 43 43 43
233 225 226 221 202 194 200 198 196 205 210 214 230 212 173 170 169 169 164 159 161 162 153 147 146 143 140 139 135 133 137 143 148 151 149 142 138 138 138 140 144 146 146 149 152 153 158 162 162 164 169 173 173 173 174 167 151 158 163 101 58 43 49 49 43 32 23 26 21 20 36 34 24 27 32 38 46 47 44 44 43 43 45 44 44
231 223 222 225 209 195 199 201 199 209 217 214 216 207 191 186 178 183 186 173 168 165 153 151 155 152 149 148 147 143 144 154 160 162 161 153 144 145 148 146 145 149 151 152 155 157 160 163 165 169 173 175 176 176 176 177 170 178 192 172 164 50 45 47 54 54 40 33 22 16 35 37 23 21 26 32 42 45 44 44 43 43 45 46 45
229 221 221 225 216 202 202 203 203 214 223 217 214 207 197 194 184 186 195 188 177 164 155 157 157 158 161 154 149 148 148 158 167 170 173 168 156 155 159 151 147 153 157 159 160 160 162 166 168 173 175 177 180 179 177 181 177 182 196 176 163 148 93 54 45 50 52 48 31 27 46 50 33 26 28 30 38 43 43 44 44 44 45 46 46
229 223 225 227 218 209 206 207 211 219 225 222 218 209 200 195 189 193 203 196 184 170 162 161 157 157 160 150 144 147 151 160 166 167 173 175 172 173 171 164 158 155 155 160 163 165 169 172 174 177 179 180 182 180 179 181 182 185 185 172 174 169 136 84 33 33 46 59 39 28 47 59 47 33 32 32 36 42 43 42 43 44 45 46 46
230 226 228 228 222 211 208 213 218 221 226 225 217 208 203 198 188 194 207 203 192 181 169 160 154 152 148 143 140 145 151 159 165 167 170 173 179 183 183 183 179 169 162 163 169 174 174 177 181 181 181 182 180 178 179 183 183 183 180 179 182 177 170 157 23 12 28 58 55 26 38 53 51 43 40 37 37 41 43 42 42 45 46 46 46
233 231 229 228 225 216 210 215 220 221 224 223 215 207 203 198 191 195 209 209 199 190 179 166 157 152 147 142 140 143 151 157 162 169 173 174 178 180 179 183 185 181 177 175 175 177 175 181 188 182 181 185 181 177 177 180 180 178 177 180 180 184 201 101 78 352 16 63 68 35 33 44 42 37 39 40 40 42 43 42 42 45 46 46 46
236 235 233 229 228 222 214 215 218 221 223 220 215 210 204 200 192 188 205 214 207 198 190 179 168 162 156 148 148 148 149 153 161 168 171 170 171 172 172 174 176 181 185 185 185 184 179 180 184 184 183 180 177 182 185 180 177 174 172 181 183 177 175 125 128 233 18 68 79 44 34 45 44 36 35 36 39 43 44 42 42 45 46 46 45
238 238 237 232 229 228 221 216 216 221 224 220 215 210 207 206 197 187 202 216 214 209 201 191 182 173 165 160 160 157 154 159 167 169 169 169 168 167 167 170 174 178 182 184 188 189 184 178 180 191 191 176 172 191 194 180 167 164 168 181 184 173 175 182 172 138 49 77 96 80 34 41 49 44 39 32 31 39 45 44 43 45 47 46 45
240 241 243 239 234 231 227 220 217 222 225 220 216 213 209 209 203 193 200 215 220 222 217 208 196 183 176 173 169 165 165 170 173 172 171 168 166 166 166 167 172 176 176 176 177 181 186 185 189 201 200 186 179 190 191 177 169 175 178 177 179 179 174 165 96 61 52 71 85 83 47 44 57 50 48 47 30 31 41 45 45 46 48 46 45
241 241 242 242 239 237 234 228 221 223 226 221 216 214 210 209 207 200 200 210 223 229 229 224 213 199 190 186 183 178 174 173 173 174 173 167 164 163 161 163 165 163 162 163 164 167 174 182 190 200 201 191 184 185 182 175 174 174 170 168 168 159 138 133 91 66 61 31 75 89 71 49 68 61 48 57 55 37 39 46 47 49 50 49 46
240 241 241 242 242 241 239 235 227 224 225 223 217 214 211 208 207 205 201 202 217 230 235 234 227 214 201 194 193 190 186 180 173 172 174 168 162 157 154 154 155 151 149 150 153 157 162 169 177 185 189 185 181 181 177 173 168 156 144 153 168 151 143 165 181 132 144 293 60 97 94 46 71 82 50 48 52 46 44 48 49 50 53 52 49
243 244 244 244 243 242 241 238 232 228 225 223 219 214 212 207 205 206 202 201 212 225 233 237 237 228 213 201 197 197 198 189 175 174 177 167 158 155 152 149 146 145 146 145 148 154 157 160 164 169 175 176 176 176 172 170 168 154 143 158 178 170 181 182 176 156 155 225 327 90 94 58 57 74 62 48 41 36 43 50 49 48 51 53 52
246 245 244 245 243 241 241 239 235 232 228 224 220 216 212 208 206 206 203 203 211 218 222 231 238 235 227 215 205 204 206 198 182 178 177 167 161 157 149 144 146 149 148 144 143 143 145 150 153 156 163 164 165 169 167 169 175 168 157 161 160 166 260 162 167 167 131 211 260 91 90 71 43 47 55 95 39 26 39 50 50 49 49 50 53
Height
1567 1566 1566 1565 1565 1565 1565 1566 1566 1565 1564 1564 1564 1563 1563 1563 1563 1564 1564 1564 1564 1563 1563 1562 1562 1562 1562 1562 1561 1560 1560 1560 1560 1559 1559 1559 1558 1558 1558 1558 1558 1558 1557 1557 1557 1556 1556 1556 1556 1556 1556 1556 1556 1556 1556 1556 1555 1555 1555 1554 1554 1553 1553 1552 1552 1552 1552 1551 1551 1550 1550 1549 1549 1548 1548 1547 1546 1546 1545 1545 1544 1543 1542 1541 1540
1566 1565 1565 1565 1565 1565 1565 1565 1565 1564 1564 1564 1564 1563 1563 1563 1563 1564 1564 1564 1564 1563 1562 1563 1562 1562 1561 1561 1560 1560 1559 1559 1560 1559 1558 1558 1558 1557 1557 1557 1557 1557 1557 1556 1556 1556 1556 1556 1556 1556 1555 1555 1555 1555 1555 1555 1555 1555 1554 1554 1553 1552 1552 1551 1551 1551 1551 1551 1550 1549 1548 1548 1548 1547 1547 1546 1546 1545 1544 1544 1543 1542 1541 1540 1539
1565 1565 1564 1564 1564 1564 1564 1564 1564 1564 1564 1564 1563 1563 1563 1563 1563 1563 1563 1563 1563 1562 1562 1562 1562 1562 1561 1560 1560 1560 1560 1560 1560 1560 1559 1559 1558 1557 1557 1557 1557 1556 1556 1556 1556 1556 1556 1556 1555 1555 1555 1555 1555 1555 1555 1555 1555 1554 1554 1553 1552 1551 1551 1550 1550 1550 1550 1549 1549 1548 1547 1547 1547 1546 1546 1545 1545 1544 1543 1542 1542 1541 1540 1539 1538
1564 1564 1563 1563 1563 1563 1563 1563 1563 1563 1563 1563 1562 1562 1562 1562 1562 1561 1562 1562 1562 1562 1561 1561 1561 1561 1561 1561 1560 1560 1560 1560 1560 1560 1560 1559 1558 1557 1556 1556 1556 1555 1555 1555 1555 1555 1555 1555 1555 1555 1554 1554 1555 1555 1555 1554 1554 1553 1553 1552 1551 1550 1549 1549 1549 1549 1548 1548 1547 1547 1546 1546 1545 1545 1545 1544 1544 1543 1542 1541 1540 1540 1539 1538 1537
1564 1563 1563 1563 1562 1562 1562 1562 1562 1561 1561 1562 1562 1562 1562 1561 1561 1561 1561 1561 1561 1561 1561 1561 1561 1561 1560 1560 1560 1560 1560 1560 1560 1559 1559 1559 1558 1557 1556 1556 1555 1554 1554 1554 1554 1554 1554 1554 1553 1553 1553 1553 1554 1553 1553 1553 1552 1552 1551 1550 1549 1549 1548 1548 1547 1547 1547 1546 1546 1545 1545 1544 1544 1544 1543 1543 1542 1541 1541 1540 1539 1538 1537 1537 1535
1564 1563 1563 1563 1562 1562 1561 1561 1561 1560 1561 1561 1561 1562 1562 1561 1561 1561 1560 1560 1560 1560 1560 1560 1560 1560 1560 1559 1560 1559 1559 1559 1559 1559 1558 1558 1557 1557 1556 1556 1555 1554 1553 1553 1554 1554 1553 1553 1553 1552 1552 1552 1552 1552 1552 1552 1551 1550 1549 1548 1547 1547 1547 1546 1546 1545 1545 1545 1544 1544 1543 1543 1542 1542 1542 1541 1541 1540 1539 1538 1537 1537 1536 1535 1534
1564 1564 1563 1563 1563 1562 1561 1561 1560 1560 1560 1559 1560 1560 1560 1560 1560 1560 1560 1560 1560 1560 1559 1559 1559 1559 1559 1559 1559 1558 1558 1559 1558 1558 1558 1557 1556 1556 1555 1554 1554 1552 1552 1553 1554 1553 1553 1553 1553 1553 1552 1552 1552 1552 1552 1551 1551 1549 1548 1547 1546 1546 1545 1545 1544 1544 1544 1543 1543 1542 1542 1541 1541 1540 1540 1539 1539 1538 1538 1537 1536 1535 1534 1533 1532
1565 1564 1564 1563 1563 1562 1562 1561 1560 1560 1559 1559 1559 1559 1559 1559 1559 1559 1559 1559 1560 1559 1559 1559 1558 1558 1558 1558 1557 1557 1557 1558 1557 1558 1558 1557 1556 1555 1553 1552 1552 1552 1553 1554 1553 1552 1552 1553 1553 1552 1552 1552 1552 1551 1551 1550 1550 1549 1547 1546 1545 1545 1544 1543 1543 1542 1542 1542 1541 1541 1541 1540 1540 1539 1538 1538 1537 1537 1536 1535 1534 1533 1532 1531 1530
1565 1565 1564 1564 1563 1563 1562 1561 1560 1560 1559 1559 1559 1559 1558 1558 1558 1558 1558 1558 1559 1559 1558 1558 1558 1557 1557 1556 1556 1556 1556 1556 1556 1556 1557 1557 1556 1554 1552 1552 1552 1552 1552 1553 1552 1552 1552 1552 1552 1552 1552 1552 1551 1551 1551 1550 1549 1548 1547 1546 1545 1544 1543 1542 1541 1541 1541 1540 1540 1540 1539 1539 1538 1538 1537 1537 1536 1535 1534 1534 1533 1532 1531 1530 1529
1566 1565 1565 1564 1564 1563 1562 1561 1560 1560 1559 1559 1559 1558 1558 1557 1558 1557 1557 1558 1558 1557 1557 1557 1557 1557 1556 1555 1555 1555 1555 1555 1555 1555 1555 1555 1554 1553 1552 1552 1552 1551 1552 1552 1552 1552 1552 1552 1552 1552 1552 1551 1551 1551 1550 1550 1549 1548 1547 1546 1544 1543 1542 1541 1540 1540 1539 1539 1539 1539 1539 1538 1537 1537 1536 1536 1535 1534 1533 1532 1531 1530 1529 1528 1527
1566 1566 1565 1565 1564 1563 1562 1562 1561 1560 1559 1559 1558 1558 1558 1557 1557 1557 1557 1557 1557 1557 1556 1556 1556 1556 1555 1555 1554 1554 1554 1554 1554 1554 1553 1553 1552 1552 1552 1552 1551 1551 1551 1551 1552 1552 1552 1552 1553 1552 1552 1551 1551 1550 1550 1549 1548 1547 1546 1545 1544 1543 1542 1541 1540 1539 1539 1539 1538 1538 1538 1537 1536 1536 1535 1535 1534 1533 1532 1531 1530 1529 1528 1527 1526
1566 1566 1565 1565 1564 1564 1563 1562 1561 1560 1560 1559 1558 1558 1557 1557 1557 1557 1556 1556 1556 1556 1555 1555 1555 1555 1554 1554 1554 1554 1554 1554 1554 1553 1552 1552 1552 1552 1552 1551 1551 1551 1550 1551 1551 1552 1552 1552 1553 1552 1552 1551 1551 1550 1549 1548 1548 1547 1546 1545 1544 1543 1542 1541 1540 1539 1539 1538 1538 1538 1537 1536 1536 1535 1535 1534 1533 1532 1531 1530 1529 1528 1527 1525 1524
1567 1566 1565 1565 1564 1564 1563 1562 1561 1560 1560 1559 1558 1558 1557 1557 1556 1556 1556 1556 1555 1555 1554 1554 1555 1554 1554 1554 1554 1553 1554 1554 1553 1553 1552 1552 1552 1551 1551 1551 1551 1551 1551 1551 1551 1551 1551 1552 1552 1552 1552 1552 1551 1550 1549 1548 1548 1547 1546 1545 1544 1543 1542 1541 1540 1540 1539 1538 1538 1537 1536 1536 1535 1534 1534 1533 1532 1531 1531 1529 1528 1527 1526 1524 1523
1567 1566 1565 1565 1564 1563 1563 1562 1561 1560 1560 1559 1558 1558 1557 1556 1556 1556 1556 1555 1555 1554 1553 1554 1554 1554 1554 1553 1553 1553 1553 1553 1553 1553 1552 1552 1551 1551 1551 1551 1551 1551 1551 1551 1551 1551 1551 1551 1551 1551 1552 1552 1551 1551 1549 1549 1549 1547 1546 1545 1544 1543 1542 1542 1541 1540 1540 1539 1538 1537 1536 1535 1535 1534 1534 1533 1532 1531 1529 1528 1527 1525 1524 1523 1521
1566 1566 1565 1565 1564 1563 1563 1562 1561 1560 1560 1559 1559 1558 1557 1556 1556 1555 1555 1555 1555 1554 1553 1553 1553 1553 1553 1553 1552 1552 1553 1553 1553 1553 1552 1552 1552 1552 1552 1552 1552 1552 1552 1552 1552 1551 1551 1551 1551 1551 1551 1552 1551 1551 1550 1549 1549 1548 1547 1546 1545 1544 1543 1543 1542 1541 1540 1539 1538 1537 1536 1535 1534 1534 1533 1532 1531 1529 1528 1527 1525 1524 1522 1521 1520
1566 1566 1565 1564 1564 1563 1563 1562 1561 1561 1560 1559 1559 1558 1557 1557 1556 1555 1555 1555 1555 1554 1553 1552 1552 1552 1552 1552 1551 1551 1551 1552 1552 1553 1553 1552 1552 1552 1552 1553 1553 1552 1552 1552 1552 1551 1551 1551 1551 1551 1551 1552 1551 1550 1550 1549 1549 1548 1547 1546 1545 1545 1544 1543 1542 1541 1540 1539 1538 1537 1536 1535 1534 1534 1533 1531 1530 1528 1527 1525 1524 1522 1521 1519 1518
1566 1565 1565 1564 1563 1563 1563 1562 1561 1561 1560 1559 1559 1558 1557 1556 1556 1555 1555 1554 1554 1554 1553 1552 1552 1552 1552 1551 1551 1550 1550 1551 1551 1553 1553 1553 1553 1553 1553 1553 1553 1553 1553 1553 1552 1552 1551 1551 1551 1551 1551 1551 1551 1550 1549 1549 1548 1548 1547 1546 1546 1545 1545 1544 1543 1542 1541 1540 1539 1538 1537 1536 1534 1533 1532 1530 1528 1527 1525 1524 1523 1521 1520 1518 1517
1565 1565 1564 1563 1563 1562 1562 1562 1561 1560 1560 1559 1559 1558 1557 1556 1556 1555 1555 1554 1554 1554 1553 1552 1552 1552 1551 1551 1551 1551 1550 1550 1551 1552 1553 1553 1553 1553 1553 1554 1554 1554 1554 1554 1553 1552 1552 1552 1552 1552 1551 1551 1551 1550 1550 1549 1548 1548 1547 1547 1546 1546 1545 1544 1543 1542 1542 1540 1539 1538 1536 1535 1534 1532 1531 1529 1527 1526 1524 1523 1521 1520 1519 1517 1516
1565 1564 1564 1563 1562 1562 1561 1561 1561 1560 1560 1559 1558 1558 1558 1556 1555 1555 1554 1554 1554 1553 1553 1553 1552 1552 1551 1551 1550 1550 1550 1551 1551 1551 1552 1553 1553 1553 1554 1554 1554 1555 1555 1555 1554 1554 1553 1553 1552 1552 1552 1551 1551 1551 1550 1549 1549 1548 1548 1547 1547 1546 1545 1544 1544 1543 1542 1540 1539 1537 1536 1534 1533 1531 1529 1528 1526 1525 1523 1522 1520 1519 1518 1516 1515
1565 1564 1563 1562 1562 1561 1561 1561 1561 1560 1560 1559 1559 1558 1557 1556 1555 1554 1554 1554 1554 1553 1553 1553 1552 1552 1551 1551 1550 1550 1550 1550 1550 1550 1551 1552 1553 1553 1554 1554 1554 1554 1555 1556 1556 1555 1554 1553 1553 1553 1552 1552 1552 1551 1550 1550 1549 1549 1548 1547 1547 1546 1545 1545 1544 1543 1542 1540 1539 1537 1535 1533 1532 1530 1528 1527 1525 1524 1522 1521 1519 1518 1516 1515 1514
1564 1563 1562 1562 1561 1561 1561 1561 1560 1560 1559 1559 1558 1558 1557 1556 1555 1554 1554 1554 1554 1553 1553 1552 1552 1551 1551 1551 1551 1550 1550 1550 1550 1550 1550 1551 1552 1553 1553 1554 1554 1554 1555 1555 1555 1555 1554 1554 1553 1554 1554 1553 1552 1551 1550 1550 1549 1549 1548 1548 1547 1546 1546 1545 1544 1542 1541 1540 1538 1536 1534 1533 1531 1529 1527 1526 1524 1523 1521 1520 1518 1517 1516 1514 1513
1563 1562 1561 1561 1560 1560 1560 1560 1559 1559 1559 1558 1558 1558 1557 1556 1555 1554 1554 1553 1553 1553 1553 1552 1552 1551 1551 1551 1551 1550 1550 1549 1549 1550 1550 1550 1552 1553 1554 1554 1554 1554 1555 1555 1555 1555 1554 1554 1554 1554 1554 1553 1552 1551 1551 1550 1549 1549 1549 1548 1548 1547 1546 1544 1543 1542 1540 1539 1537 1535 1534 1532 1530 1528 1526 1525 1523 1522 1521 1519 1518 1516 1515 1513 1512
1563 1562 1561 1561 1560 1560 1560 1559 1559 1559 1558 1558 1558 1558 1557 1556 1555 1554 1554 1553 1553 1552 1552 1552 1552 1551 1551 1551 1551 1550 1550 1550 1550 1550 1549 1549 1550 1552 1553 1554 1554 1554 1555 1555 1555 1555 1555 1555 1554 1554 1554 1553 1553 1552 1551 1550 1550 1549 1549 1549 1548 1547 1545 1544 1543 1541 1540 1538 1537 1535 1533 1531 1529 1527 1526 1524 1523 1522 1520 1519 1517 1516 1514 1513 1511
1563 1562 1561 1560 1560 1559 1559 1559 1559 1559 1558 1558 1558 1558 1557 1557 1556 1555 1554 1553 1553 1552 1552 1552 1552 1552 1551 1551 1550 1550 1550 1550 1550 1550 1549 1549 1550 1551 1552 1553 1553 1554 1555 1555 1555 1555 1555 1555 1555 1555 1555 1554 1553 1553 1552 1551 1550 1550 1549 1549 1548 1546 1545 1544 1542 1541 1540 1538 1537 1535 1533 1531 1529 1527 1526 1524 1523 1522 1520 1518 1517 1515 1513 1512 1510
1563 1562 1561 1560 1559 1559 1559 1559 1559 1559 1558 1558 1558 1557 1557 1557 1556 1555 1554 1553 1552 1552 1552 1552 1552 1552 1552 1551 1550 1550 1549 1549 1549 1550 1549 1549 1550 1550 1551 1552 1553 1554 1555 1555 1556 1556 1556 1556 1556 1556 1556 1555 1554 1553 1552 1552 1551 1550 1549 1548 1547 1546 1545 1544 1542 1541 1540 1538 1537 1535 1533 1531 1529 1527 1526 1524 1523 1521 1520 1518 1517 1515 1513 1511 1510
1562 1561 1560 1560 1560 1559 1559 1559 1559 1559 1558 1558 1558 1557 1557 1557 1556 1555 1554 1553 1552 1553 1553 1552 1552 1552 1551 1551 1550 1549 1549 1549 1549 1549 1549 1549 1550 1550 1551 1552 1553 1554 1555 1557 1558 1557 1557 1557 1557 1557 1556 1556 1555 1554 1553 1552 1551 1551 1550 1548 1547 1546 1545 1544 1542 1541 1540 1539 1537 1535 1533 1531 1529 1528 1526 1525 1523 1521 1520 1518 1516 1514 1513 1511 1509
1562 1560 1560 1560 1560 1559 1559 1559 1558 1558 1558 1558 1558 1557 1557 1556 1556 1555 1553 1553 1553 1553 1553 1552 1551 1551 1551 1550 1550 1549 1549 1549 1549 1549 1549 1549 1549 1550 1550 1552 1554 1555 1556 1558 1558 1558 1557 1558 1558 1558 1557 1556 1555 1554 1553 1553 1552 1551 1550 1549 1547 1546 1545 1544 1542 1541 1540 1539 1538 1536 1533 1531 1530 1528 1527 1525 1523 1521 1519 1518 1516 1514 1512 1510 1509
1561 1560 1560 1560 1560 1559 1559 1558 1558 1558 1558 1557 1557 1557 1556 1556 1555 1555 1553 1552 1553 1552 1553 1553 1552 1551 1551 1550 1550 1549 1549 1549 1549 1549 1549 1549 1549 1550 1550 1552 1553 1554 1556 1558 1558 1557 1557 1558 1558 1558 1558 1557 1555 1555 1554 1554 1553 1552 1551 1549 1548 1546 1545 1544 1543 1542 1541 1540 1538 1536 1534 1532 1531 1529 1528 1526 1524 1522 1520 1518 1516 1514 1512 1510 1509
1561 1560 1559 1560 1560 1559 1559 1558 1558 1558 1557 1557 1557 1556 1555 1554 1554 1553 1552 1552 1552 1552 1552 1552 1552 1552 1551 1550 1550 1549 1549 1549 1549 1549 1549 1549 1549 1550 1551 1552 1552 1552 1554 1556 1557 1557 1557 1557 1558 1558 1558 1557 1556 1556 1555 1555 1554 1552 1551 1550 1549 1547 1546 1545 1543 1542 1541 1540 1538 1537 1535 1533 1532 1530 1528 1526 1525 1523 1521 1519 1517 1514 1512 1510 1509
1561 1560 1560 1560 1559 1559 1559 1558 1558 1557 1557 1556 1556 1555 1554 1553 1553 1552 1552 1551 1551 1551 1551 1551 1551 1551 1551 1550 1550 1549 1549 1549 1549 1549 1549 1549 1549 1550 1551 1552 1552 1552 1553 1554 1555 1556 1556 1557 1557 1557 1557 1557 1557 1556 1556 1555 1554 1553 1552 1551 1550 1549 1547 1546 1544 1543 1542 1541 1539 1538 1536 1535 1533 1531 1529 1527 1525 1523 1521 1519 1517 1515 1513 1511 1509
1561 1560 1560 1560 1560 1559 1559 1558 1558 1557 1556 1555 1554 1553 1553 1552 1552 1552 1551 1551 1551 1551 1550 1550 1550 1550 1550 1550 1549 1549 1549 1548 1548 1548 1548 1549 1549 1550 1551 1551 1552 1552 1552 1552 1553 1555 1556 1556 1557 1557 1557 1557 1558 1557 1556 1556 1555 1554 1554 1553 1551 1550 1548 1547 1545 1544 1543 1542 1540 1539 1537 1536 1534 1532 1530 1528 1526 1524 1522 1520 1518 1516 1514 1512 1510
1560 1560 1560 1560 1560 1559 1559 1558 1558 1556 1555 1554 1554 1553 1552 1552 1552 1551 1551 1551 1551 1550 1550 1550 1550 1550 1550 1549 1549 1549 1548 1548 1548 1548 1548 1548 1549 1550 1550 1551 1551 1552 1552 1552 1552 1554 1555 1556 1556 1557 1557 1558 1558 1558 1557 1556 1555 1555 1555 1554 1553 1552 1551 1548 1546 1545 1544 1542 1541 1540 1538 1537 1535 1533 1531 1529 1527 1525 1523 1521 1518 1516 1514 1512 1510
1560 1559 1559 1559 1560 1559 1559 1558 1557 1556 1555 1554 1553 1552 1552 1551 1551 1551 1550 1550 1550 1550 1550 1550 1549 1549 1549 1549 1549 1548 1548 1548 1548 1548 1548 1548 1549 1549 1550 1550 1551 1551 1552 1552 1552 1553 1554 1556 1557 1557 1557 1558 1559 1559 1558 1557 1556 1556 1556 1555 1555 1554 1553 1551 1548 1546 1545 1543 1542 1541 1539 1537 1536 1534 1532 1530 1528 1526 1524 1522 1519 1517 1515 1513 1511
1559 1559 1559 1559 1559 1559 1558 1558 1557 1556 1555 1554 1552 1552 1552 1551 1551 1550 1550 1550 1549 1549 1549 1549 1549 1549 1549 1549 1548 1548 1548 1547 1547 1547 1548 1548 1549 1549 1549 1550 1550 1550 1551 1552 1553 1553 1554 1556 1557 1557 1557 1558 1559 1559 1558 1558 1557 1557 1556 1556 1555 1555 1554 1552 1550 1547 1546 1544 1543 1542 1540 1539 1537 1535 1533 1531 1529 1527 1525 1523 1521 1518 1516 1514 1512
1558 1558 1558 1558 1558 1558 1557 1557 1556 1555 1554 1553 1552 1551 1551 1551 1550 1550 1549 1549 1549 1549 1549 1549 1549 1548 1548 1548 1548 1548 1547 1547 1547 1547 1547 1547 1549 1549 1549 1550 1550 1550 1551 1552 1553 1554 1555 1556 1557 1558 1558 1559 1559 1558 1558 1558 1558 1557 1557 1556 1556 1555 1554 1553 1551 1549 1547 1546 1544 1543 1541 1540 1538 1536 1535 1533 1531 1529 1526 1524 1522 1520 1518 1516 1513
1557 1556 1556 1556 1556 1556 1556 1556 1555 1555 1554 1553 1552 1551 1551 1550 1550 1549 1549 1549 1548 1548 1548 1548 1548 1548 1548 1548 1548 1547 1547 1547 1547 1547 1547 1547 1548 1549 1549 1550 1550 1551 1552 1553 1554 1554 1555 1556 1557 1558 1558 1559 1559 1558 1558 1558 1558 1558 1558 1557 1556 1556 1555 1554 1552 1550 1548 1547 1545 1545 1543 1541 1540 1538 1536 1534 1532 1530 1528 1526 1524 1521 1519 1517 1515
1556 1555 1555 1555 1555 1555 1555 1555 1555 1554 1553 1552 1551 1551 1550 1550 1549 1549 1549 1548 1548 1548 1548 1548 1547 1547 1547 1547 1547 1547 1547 1547 1547 1547 1547 1547 1549 1549 1550 1550 1551 1552 1553 1553 1554 1554 1555 1556 1557 1557 1558 1558 1558 1558 1558 1559 1558 1558 1558 1557 1557 1556 1555 1554 1553 1551 1549 1548 1547 1546 1544 1543 1541 1540 1538 1536 1534 1532 1529 1527 1525 1523 1521 1519 1516
1555 1554 1554 1553 1554 1554 1554 1554 1554 1553 1553 1552 1551 1550 1550 1549 1549 1549 1548 1548 1548 1548 1547 1547 1547 1547 1547 1547 1547 1546 1547 1547 1547 1547 1547 1548 1549 1549 1550 1551 1552 1552 1553 1553 1553 1554 1555 1555 1556 1557 1557 1558 1558 1558 1559 1559 1559 1559 1559 1558 1558 1557 1557 1556 1555 1553 1551 1550 1549 1548 1546 1545 1543 1541 1540 1538 1535 1533 1531 1529 1527 1525 1522 1520 1518
1553 1553 1553 1552 1552 1553 1553 1553 1553 1552 1551 1551 1550 1549 1549 1549 1549 1549 1548 1548 1548 1547 1547 1547 1547 1547 1546 1546 1546 1546 1546 1547 1547 1547 1548 1548 1549 1549 1550 1551 1551 1552 1552 1553 1553 1554 1554 1555 1555 1556 1557 1557 1558 1559 1559 1559 1559 1560 1559 1559 1559 1558 1557 1557 1556 1555 1554 1552 1551 1550 1548 1546 1545 1543 1541 1539 1537 1535 1533 1531 1529 1527 1524 1522 1520
1552 1552 1552 1551 1551 1551 1552 1552 1551 1551 1550 1549 1549 1549 1549 1549 1548 1548 1548 1548 1547 1547 1547 1546 1546 1546 1546 1546 1546 1545 1546 1546 1546 1547 1547 1548 1549 1549 1550 1550 1551 1552 1552 1553 1553 1554 1554 1555 1555 1556 1556 1557 1558 1558 1558 1558 1559 1560 1559 1559 1560 1559 1558 1557 1557 1556 1556 1555 1554 1552 1549 1548 1548 1546 1544 1541 1539 1537 1535 1533 1531 1529 1527 1524 1522
1551 1551 1551 1550 1550 1550 1550 1550 1550 1549 1549 1548 1548 1548 1548 1548 1548 1548 1548 1547 1547 1547 1547 1546 1546 1546 1545 1545 1545 1545 1545 1546 1546 1547 1547 1547 1548 1549 1550 1550 1551 1552 1552 1553 1553 1554 1554 1555 1555 1556 1556 1557 1557 1557 1558 1558 1559 1559 1559 1559 1559 1559 1559 1558 1557 1556 1556 1556 1555 1554 1551 1551 1551 1549 1547 1544 1541 1539 1537 1534 1533 1531 1529 1526 1524
1549 1549 1549 1549 1549 1549 1549 1548 1548 1548 1548 1547 1547 1547 1547 1547 1547 1547 1547 1547 1547 1546 1546 1546 1546 1545 1545 1545 1545 1545 1545 1546 1546 1546 1547 1547 1548 1548 1549 1550 1550 1551 1552 1553 1553 1554 1554 1555 1555 1555 1556 1556 1557 1557 1558 1558 1558 1558 1558 1558 1559 1559 1559 1559 1558 1557 1556 1556 1556 1555 1553 1551 1552 1551 1549 1546 1543 1541 1538 1536 1535 1533 1531 1529 1526
1547 1547 1548 1548 1547 1547 1547 1547 1547 1547 1546 1546 1546 1546 1546 1546 1547 1547 1546 1546 1546 1546 1546 1546 1545 1545 1545 1545 1545 1545 1545 1545 1546 1546 1546 1547 1547 1548 1548 1549 1549 1550 1551 1552 1553 1553 1554 1554 1554 1555 1555 1556 1556 1557 1557 1557 1558 1558 1558 1558 1559 1559 1559 1559 1559 1558 1557 1556 1557 1556 1554 1552 1552 1552 1550 1548 1546 1543 1540 1539 1537 1536 1534 1531 1529
1544 1545 1546 1546 1546 1546 1546 1546 1546 1546 1545 1545 1545 1545 1546 1546 1546 1546 1546 1546 1546 1546 1546 1545 1545 1545 1545 1545 1544 1544 1545 1545 1545 1546 1546 1547 1547 1547 1548 1548 1549 1549 1550 1550 1551 1552 1553 1554 1554 1554 1555 1555 1555 1556 1557 1557 1557 1557 1558 1558 1559 1559 1559 1560 1560 1559 1557 1556 1557 1558 1556 1554 1554 1553 1551 1549 1547 1545 1543 1541 1540 1538 1536 1534 1531
1542 1543 1543 1543 1544 1544 1544 1544 1544 1544 1544 1544 1544 1545 1545 1545 1545 1545 1546 1546 1546 1545 1545 1545 1545 1545 1545 1544 1544 1544 1544 1545 1545 1546 1546 1546 1547 1547 1547 1548 1548 1548 1549 1549 1550 1551 1552 1553 1554 1554 1554 1555 1555 1556 1556 1556 1557 1557 1558 1558 1558 1559 1559 1560 1560 1559 1557 1556 1557 1558 1557 1556 1555 1555 1553 1551 1550 1547 1545 1544 1542 1540 1538 1536 1534
1539 1540 1541 1541 1541 1541 1542 1542 1542 1543 1543 1543 1543 1543 1544 1544 1544 1545 1545 1545 1545 1545 1545 1545 1545 1544 1544 1544 1544 1544 1544 1544 1545 1545 1545 1546 1546 1547 1547 1547 1547 1548 1548 1548 1549 1550 1550 1551 1553 1553 1553 1554 1555 1555 1554 1555 1556 1557 1558 1558 1558 1559 1559 1559 1558 1558 1557 1557 1557 1558 1559 1557 1557 1557 1555 1554 1552 1549 1547 1546 1544 1543 1541 1539 1536
1537 1538 1539 1539 1539 1539 1540 1540 1540 1541 1541 1541 1542 1542 1542 1543 1543 1544 1544 1544 1545 1545 1544 1544 1544 1544 1544 1544 1544 1544 1543 1544 1544 1545 1545 1545 1546 1546 1546 1547 1547 1547 1548 1548 1548 1549 1549 1550 1551 1551 1551 1552 1553 1553 1553 1554 1555 1556 1557 1557 1558 1558 1558 1558 1558 1558 1558 1557 1557 1558 1560 1559 1557 1558 1557 1555 1555 1552 1550 1548 1547 1545 1543 1541 1539
1534 1535 1536 1537 1537 1538 1538 1538 1538 1538 1539 1539 1540 1540 1541 1542 1542 1542 1543 1543 1544 1544 1544 1544 1544 1544 1544 1544 1544 1543 1543 1543 1544 1544 1544 1545 1545 1546 1546 1546 1547 1547 1547 1548 1548 1548 1549 1549 1549 1550 1550 1551 1551 1552 1553 1553 1554 1555 1556 1556 1557 1557 1558 1559 1559 1559 1559 1559 1557 1558 1560 1559 1558 1558 1558 1556 1556 1555 1552 1550 1549 1547 1545 1543 1542
1531 1532 1533 1534 1535 1535 1535 1536 1536 1536 1536 1537 1538 1539 1539 1540 1541 1541 1542 1542 1543 1543 1543 1544 1544 1543 1543 1543 1543 1543 1543 1543 1543 1544 1544 1545 1545 1546 1546 1546 1547 1547 1547 1547 1548 1548 1548 1549 1549 1550 1550 1551 1551 1552 1552 1553 1554 1555 1556 1558 1558 1558 1559 1560 1561 1560 1560 1560 1558 1558 1560 1560 1559 1559 1559 1557 1556 1556 1554 1553 1551 1550 1548 1546 1544
1529 1530 1531 1531 1532 1533 1533 1533 1534 1534 1534 1535 1536 1536 1537 1538 1539 1540 1541 1541 1541 1542 1542 1543 1543 1543 1543 1543 1543 1543 1543 1543 1543 1543 1544 1544 1545 1545 1546 1546 1547 1547 1547 1547 1548 1548 1548 1549 1549 1550 1550 1550 1551 1551 1552 1553 1554 1554 1556 1558 1559 1559 1560 1561 1561 1561 1561 1561 1559 1558 1560 1560 1559 1559 1559 1559 1558 1557 1556 1554 1553 1551 1550 1548 1547
1526 1527 1528 1528 1529 1530 1530 1531 1532 1532 1532 1532 1533 1534 1535 1536 1537 1538 1539 1540 1540 1541 1541 1542 1542 1542 1542 1543 1543 1543 1543 1543 1543 1543 1543 1544 1545 1545 1546 1547 1547 1547 1547 1547 1548 1548 1548 1549 1549 1550 1550 1550 1551 1552 1553 1553 1554 1555 1555 1557 1558 1559 1560 1561 1561 1561 1561 1561 1559 1559 1560 1561 1560 1560 1560 1560 1560 1559 1557 1556 1555 1553 1552 1550 1549